Darwin, CA

9:41 AM PDT on September 29, 2016 (GMT -0700)
China Lake NAWS

Weather History for KNID - January, 2014

Change the Weather History Date:

Saturday, January 4, 2014

  Actual Average Record
Temperature  
Mean Temperature 47 °F -  
Max Temperature 66 °F 56 °F 70 °F (2012)
Min Temperature 28 °F 31 °F 19 °F (2013)
Degree Days  
Heating Degree Days 18    
Moisture  
Dew Point 21 °F    
Average Humidity 42    
Maximum Humidity 61    
Minimum Humidity 20    
Precipitation  
Precipitation 0.00 in - - ()
Sea Level Pressure  
Sea Level Pressure 30.02 in    
Wind  
Wind Speed 4 mph (SSE)    
Max Wind Speed 9 mph    
Max Gust Speed -    
Averages and records for this station are not official NWS values.
T = Trace of Precipitation, MM = Missing Value Source: NWS Daily Summary

Daily Weather History Graph

Daily Weather History Graph

Search for Another Location

Airport or City:

Trip Planner

Search our weather history database for the weather conditions in past years. The results will help you decide how hot, cold, wet, or windy it might be!

Date:

Astronomy

Jan. 04, 2014 Rise Set
Actual Time 7:00 AM PST 4:50 PM PST
Civil Twilight 6:32 AM PST 5:19 PM PST
Nautical Twilight 6:00 AM PST 5:50 PM PST
Astronomical Twilight 5:29 AM PST 6:21 PM PST
Moon 9:17 AM PST (1/4) 9:06 PM PST (1/4)
Length of Visible Light 10h 46m
Length of Day
9h 49m
Waxing Crescent, 16% of the Moon is Illuminated
Jan 4
Waxing Crescent
Jan 7
First Quarter
Jan 15
Full
Jan 23
Last Quarter
Jan 30
New

Hourly Weather History & Observations

Time (PST) Temp. Windchill Dew Point Humidity Pressure Visibility Wind Dir Wind Speed Gust Speed Precip Events Conditions
12:56 AM 37.0 °F 32.4 °F 21.0 °F 52% 29.94 in - SSW 5.8 mph - N/A   Clear
1:56 AM 37.0 °F 32.4 °F 21.0 °F 52% 29.93 in - WSW 5.8 mph - N/A   Clear
2:56 AM 33.1 °F - 19.0 °F 56% 29.94 in - Calm Calm - N/A   Clear
3:56 AM 34.0 °F 28.8 °F 19.9 °F 56% 29.93 in - SSW 5.8 mph - N/A   Clear
4:56 AM 33.1 °F 26.9 °F 19.9 °F 59% 29.93 in - SSE 6.9 mph - N/A   Clear
5:56 AM 30.0 °F 25.2 °F 18.0 °F 61% 29.96 in - NW 4.6 mph - N/A   Clear
6:56 AM 28.0 °F - 16.0 °F 61% 29.99 in - Calm Calm - N/A   Clear
7:56 AM 33.1 °F 27.7 °F 19.0 °F 56% 29.99 in - South 5.8 mph - N/A   Clear
8:56 AM 39.0 °F - 19.9 °F 46% 30.04 in - Calm Calm - N/A   Clear
9:56 AM 48.0 °F - 21.9 °F 36% 30.06 in - North 3.5 mph - N/A   Clear
10:56 AM 52.0 °F - 23.0 °F 32% 30.04 in - East 3.5 mph - N/A   Clear
11:56 AM 60.1 °F - 24.1 °F 25% 30.02 in - NNE 4.6 mph - N/A   Clear
12:56 PM 62.1 °F - 24.1 °F 23% 30.00 in - ENE 3.5 mph - N/A   Clear
1:56 PM 64.0 °F - 25.0 °F 23% 29.99 in - Calm Calm - N/A   Clear
2:56 PM 66.0 °F - 24.1 °F 20% 30.01 in - East 4.6 mph - N/A   Clear
3:56 PM 64.9 °F - 24.1 °F 21% 30.01 in - East 6.9 mph - N/A   Clear
4:56 PM 57.9 °F - 24.1 °F 27% 30.03 in - NNE 3.5 mph - N/A   Clear
5:56 PM 51.1 °F - 21.9 °F 32% 30.06 in - ESE 4.6 mph - N/A   Clear
6:56 PM 46.9 °F - 21.0 °F 36% 30.08 in - WSW 5.8 mph - N/A   Clear
7:56 PM 43.0 °F 37.7 °F 21.0 °F 42% 30.10 in - SSW 9.2 mph - N/A   Clear
8:56 PM 41.0 °F 35.2 °F 19.9 °F 43% 30.11 in - South 9.2 mph - N/A   Clear
9:56 PM 42.1 °F - 21.0 °F 43% 30.12 in - Calm Calm - N/A   Clear
10:56 PM 37.0 °F 34.5 °F 19.9 °F 50% 30.12 in - Variable 3.5 mph - N/A   Clear
11:56 PM 37.0 °F 34.5 °F 18.0 °F 46% 30.14 in - Variable 3.5 mph - N/A   Clear